Weather in Khvoshchi

Russia / Kaluga Oblast     54°52′38″N   35°17′49″E
temp.,
°C
wind,
m/s
gust,
m/s
humid.,
%
clouds,
%
prec.,
mm/h
press.,
hPa
HPBL,
m
5 august, thu
thu500:00+14ne128714 0.2 101716
03:00+13ene119214 0.2 101712
06:00+13ese2490100 0.0 1017108
09:00+18sse357089 0.0 1016434
12:00+17s51084100 1.6 1016706
15:00+16se388892 2.1 1015423
18:00+19ese2681100 0.6 1013549
21:00+15ese2595100 1.1 1012104
6 august, fri
fri600:00+14ese229696 0.1 101227
03:00+14se229691 0.1 101132
06:00+14ese1197100 0.1 101139
09:00+19se2487100 0.1 1010300
12:00+18se2497100 1.1 1010275
15:00+18ese3798100 2.8 1010269
18:00+19e41093100 0.0 1008329
21:00+18ene41095100 0.3 1007337
7 august, sat
sat700:00+17e41393100 0.0 1006364
03:00+16e3895100 0.0 1006199
06:00+16se2697100 0.1 1006134
09:00+22s3773100 0.1 1007464
12:00+25s3458100 0.3 10071041
15:00+24ssw3680100 1.5 1007907
18:00+21wsw3791100 4.0 1008376
21:00+19wsw2794100 5.4 1009200
8 august, sun
sun800:00+16w2795100 0.0 1011175
03:00+13sw23976 0.0 101356
06:00+12sw2696100 0.0 1014167
09:00+16w3784100 0.0 1014507
12:00+22wsw345559 0.0 10141591
15:00+23wnw345149 0.1 10151715
18:00+23wnw145553 0.0 10161310
21:00+16wsw11780 0.0 101711
9 august, mon
mon900:00+14wsw11815 0.0 101811
03:00+13w11873 0.0 101911
06:00+14ssw11865 0.0 101910
09:00+21s126023 0.0 1019344
12:00+25ssw2147100 0.0 10191326
15:00+27ssw114216 0.0 10181632
18:00+25sse23535 0.0 1017171
21:00+19s11705 0.0 101811